Wenatchee, WA
on Thursday, January 24, 2013

Thursday
Previous Day Next Day
Daily Summary
 ActualAverageRecord
Temperature
Mean Temperature °F 31°F  
Max Temperature 30°F 36°F 53°F (1981)
Min Temperature 22°F 26°F -2°F (1969)
Degree Days
Heating Degree Days 39 34  
Month to date heating degree days 1046 866  
Since 1 July heating degree days 3709 3386  
Cooling Degree Days 0 0  
Month to date cooling degree days 0 0  
Year to date cooling degree days 0 0  
Moisture
Dew Point 20°F   
Average Humidity 86    
Maximum Humidity 93    
Minimum Humidity 78    
Precipitation
Precipitation 0.02 in 0.03 in 0.38 in (1964)
Month to date precipitation 1.04 0.85  
Year to date precipitation 1.04 0.85  
Snow
Snow T in 0.20 in 5.00 in (1964)
Month to date snowfall 11.7 8.1  
Snow Depth 5.00 in   
Wind
Wind Speed 3 mph   
Max Wind Speed 6 mph   
Max Gust Speed mph   
Visibility 7 miles   
Events Snow   

Key: T is trace of precipitation, MM is missing value
Source: NWS Daily Summary
Time(PST)TemperatureDew PointHumidity Pressure Visibility Wind DirectionWind SpeedGust SpeedPrecipitationEvents Conditions
12:55 AM 19.0°F 17.1°F 92% 30.14 in 7.0 miles ENE 4.6 mph - N/A   Clear
1:55 AM 19.9°F 17.1°F 89% 30.17 in 2.5 miles ENE 3.5 mph - N/A   Clear
2:05 AM 19.4°F 17.6°F 93% 30.12 in 5.0 miles East 4.6 mph - N/A   Clear
2:55 AM 19.9°F 18.0°F 92% 30.19 in 5.0 miles East 4.6 mph - N/A   Clear
3:55 AM 19.9°F 18.0°F 92% 30.22 in 4.0 miles East 4.6 mph - N/A   Clear
4:34 AM 19.4°F 17.6°F 93% 30.18 in 5.0 miles NE 4.6 mph - N/A   Partly Cloudy
4:55 AM 21.0°F 18.0°F 88% 30.24 in 5.0 miles NE 4.6 mph - N/A   Mostly Cloudy
5:55 AM 21.9°F 19.0°F 89% 30.27 in 6.0 miles Calm Calm - N/A   Overcast
6:39 AM 21.2°F 19.4°F 93% 30.22 in 1.8 miles Calm Calm - 0.00 in Snow Light Snow
6:50 AM 21.2°F 19.4°F 93% 30.22 in 3.0 miles NE 3.5 mph - 0.00 in Snow Light Snow
6:55 AM 21.9°F 19.0°F 89% 30.28 in 6.0 miles NNE 3.5 mph - 0.00 in   Overcast
7:08 AM 21.2°F 19.4°F 93% 30.22 in 6.0 miles NE 3.5 mph - N/A   Overcast
7:55 AM 23.0°F 19.9°F 88% 30.30 in 2.5 miles ESE 3.5 mph - N/A   Overcast
8:55 AM 23.0°F 21.0°F 92% 30.31 in 2.5 miles East 3.5 mph - N/A   Overcast
9:05 AM 23.0°F 21.2°F 93% 30.27 in 3.0 miles ESE 3.5 mph - N/A   Overcast
9:53 AM 24.8°F 21.2°F 86% 30.27 in 2.5 miles ESE 5.8 mph - N/A   Overcast
9:55 AM 24.1°F 21.0°F 88% 30.32 in 2.5 miles ESE 5.8 mph - N/A   Overcast
10:05 AM 24.8°F 21.2°F 86% 30.27 in 3.0 miles SE 5.8 mph - N/A   Overcast
10:55 AM 24.1°F 21.0°F 88% 30.33 in 6.0 miles SE 4.6 mph - N/A   Overcast
11:06 AM 24.8°F 21.2°F 86% 30.27 in 6.0 miles ESE 3.5 mph - N/A   Overcast
11:55 AM 25.0°F 21.0°F 85% 30.30 in 7.0 miles SE 4.6 mph - N/A   Overcast
12:55 PM 25.0°F 21.9°F 88% 30.29 in 10.0 miles Calm Calm - N/A   Overcast
1:55 PM 26.1°F 19.9°F 78% 30.28 in 10.0 miles Calm Calm - N/A   Overcast
2:55 PM 26.1°F 21.0°F 81% 30.27 in 10.0 miles Calm Calm - N/A   Overcast
3:55 PM 26.1°F 19.9°F 78% 30.27 in 10.0 miles Calm Calm - N/A   Overcast
4:55 PM 26.1°F 21.0°F 81% 30.26 in 10.0 miles Calm Calm - N/A   Overcast
5:55 PM 26.1°F 21.0°F 81% 30.25 in 10.0 miles Calm Calm - N/A   Overcast
6:55 PM 26.1°F 21.0°F 81% 30.26 in 10.0 miles Calm Calm - N/A   Overcast
7:43 PM 26.6°F 21.2°F 80% 30.20 in 10.0 miles WNW 3.5 mph - N/A   Mostly Cloudy
7:55 PM 26.1°F 21.0°F 81% 30.24 in 10.0 miles Calm Calm - N/A   Overcast
8:44 PM 26.6°F 21.2°F 80% 30.18 in 9.0 miles Calm Calm - N/A   Overcast
8:55 PM 26.1°F 21.0°F 81% 30.23 in 9.0 miles West 3.5 mph - N/A   Overcast
9:55 PM 25.0°F 21.0°F 85% 30.22 in 9.0 miles Calm Calm - N/A   Overcast
10:10 PM 24.8°F 21.2°F 86% 30.17 in 9.0 miles Calm Calm - N/A   Mostly Cloudy
10:18 PM 24.8°F 21.2°F 86% 30.17 in 9.0 miles North 3.5 mph - N/A   Mostly Cloudy
10:55 PM 25.0°F 19.9°F 81% 30.21 in 10.0 miles Calm Calm - N/A   Overcast
11:14 PM 24.8°F 19.4°F 80% 30.17 in 10.0 miles NNW 3.5 mph - N/A   Scattered Clouds
11:55 PM 24.1°F 21.0°F 88% 30.21 in 10.0 miles Calm Calm - N/A   Partly Cloudy
Moon Phase
Jan. 24 Jan. 26 Feb. 03 Feb. 10 Feb. 17
Sunrise:07:35 AM (PST) Moon Rise:02:55 PM (PST)
Sunset:04:50 PM (PST) Moon Set:05:39 AM (PST)

Copyright © 2014 The Weather Underground, Inc.